Wind_Speed
24 25 26 27 28 28 28 26 24 24 24 24 24 25 26 27 27 28 29 30 31 32 32 32 32 32 32 32 31 30 29 28 28 28 27 25 23 21 19 18 17 14 12 10 9 8 8 7 6 5 5 5 5 6 7 7 7 6 6 6 6 8 10 11 10 10 9 9 9
25 26 27 28 29 30 29 26 25 25 25 25 25 25 26 27 28 28 29 30 30 30 30 31 31 31 32 32 31 30 29 28 28 28 27 25 23 21 20 19 17 15 12 11 10 9 8 7 7 6 6 6 6 7 8 8 7 7 7 6 7 8 10 11 11 10 10 10 9
26 26 27 29 31 31 30 28 26 26 26 26 26 26 26 27 28 28 29 29 29 29 29 29 30 30 31 31 30 30 29 29 28 28 27 25 24 22 21 19 17 15 13 12 11 10 9 8 7 7 7 7 8 9 9 9 8 7 7 6 7 9 10 11 11 11 10 10 10
26 26 28 30 32 33 31 29 28 27 27 27 27 26 26 27 27 28 28 28 28 28 28 28 28 29 30 30 30 29 29 29 28 28 27 25 24 22 21 20 18 16 14 13 11 10 9 8 8 8 8 8 8 9 10 10 9 8 7 6 7 9 11 11 11 11 11 11 11
26 27 28 31 33 33 32 31 29 29 29 28 28 27 26 26 27 27 28 28 28 28 28 27 27 28 28 29 29 29 29 29 29 28 27 26 24 23 22 20 18 17 15 13 12 11 9 9 9 9 9 8 8 9 9 10 10 9 8 7 7 9 11 12 12 12 12 12 13
27 27 28 31 32 33 32 31 30 30 30 29 29 28 26 26 27 27 28 28 28 27 27 27 26 26 27 27 27 28 29 29 29 29 28 26 24 23 22 20 19 17 16 14 12 11 10 9 10 9 9 8 8 8 9 9 10 9 9 8 9 10 12 13 14 14 13 14 14
27 27 28 30 32 33 32 32 31 30 30 30 30 28 26 26 27 28 28 28 27 26 26 26 26 26 26 26 27 27 28 29 29 29 28 26 25 24 22 21 19 17 16 15 13 12 11 10 10 10 10 9 8 8 9 10 10 10 10 10 10 11 13 14 15 15 15 15 15
27 27 28 29 31 32 32 32 31 31 31 31 30 28 26 26 27 28 28 27 27 26 26 26 26 26 26 26 26 27 28 29 29 29 28 27 25 24 22 21 19 18 17 16 14 13 12 11 10 10 10 9 9 9 10 10 11 12 12 12 12 13 14 15 16 17 17 17 16
26 27 28 29 30 31 31 32 31 31 31 31 30 27 26 26 27 28 28 28 27 26 26 26 26 26 26 26 26 27 28 29 29 29 28 27 25 24 23 21 20 19 18 17 15 14 12 11 11 10 10 9 9 9 10 11 12 13 14 15 15 14 14 15 16 18 18 18 18
27 27 27 28 29 30 30 30 30 30 30 30 28 26 26 27 28 29 29 28 27 26 26 25 26 26 26 26 27 27 28 28 28 28 28 27 25 24 23 22 21 20 19 18 16 15 13 12 11 10 9 9 9 10 11 12 13 15 16 16 16 16 16 15 16 17 17 18 18
27 27 27 28 28 29 29 29 28 28 29 28 27 26 26 28 29 30 29 28 27 26 26 26 26 26 27 27 27 27 27 27 28 28 27 26 25 25 24 23 22 20 20 19 17 16 14 13 11 10 10 10 11 11 12 13 14 15 16 17 17 17 17 16 16 16 17 17 17
27 27 27 27 28 28 28 28 27 27 27 26 25 25 27 29 30 30 29 27 27 26 26 26 26 27 27 27 27 27 27 27 27 27 27 26 25 25 24 23 22 21 20 19 18 16 14 13 11 11 11 11 12 12 12 13 14 15 16 17 17 18 17 16 16 16 16 17 17
27 27 27 26 26 27 27 26 26 25 25 25 24 25 28 30 30 30 28 27 27 26 26 27 27 27 27 27 27 27 27 27 26 26 26 26 25 25 25 24 23 21 20 19 18 16 14 12 12 12 12 13 13 12 12 13 14 15 16 17 17 18 17 17 16 16 17 17 17
27 27 26 25 25 25 25 25 24 24 24 24 24 25 27 29 29 29 28 28 27 27 27 27 28 27 27 27 27 26 26 26 26 26 26 26 26 25 25 24 23 22 21 19 18 16 14 12 12 13 14 14 13 12 13 14 15 16 16 17 18 18 18 18 18 18 18 18 19
27 26 26 25 25 25 25 24 23 23 23 24 24 25 26 28 28 28 28 28 27 27 28 28 28 27 27 26 26 26 26 26 26 26 26 26 26 26 25 24 23 22 21 19 17 15 14 13 14 14 15 14 13 13 14 15 15 16 17 18 18 19 20 20 20 20 20 20 21
26 26 26 25 25 25 24 24 23 22 23 24 24 25 26 26 26 27 28 28 28 28 28 28 27 27 26 25 25 25 26 26 26 26 26 26 26 26 25 24 23 22 21 18 16 15 14 14 15 15 15 14 13 14 14 15 16 16 17 18 19 20 21 22 22 22 22 22 22
26 26 25 25 25 24 24 23 22 22 23 24 24 25 25 25 26 27 28 28 28 28 28 27 26 26 26 25 25 25 26 26 27 27 26 26 26 26 25 24 23 22 20 18 16 15 15 15 15 15 15 15 15 15 15 15 16 16 17 18 19 21 22 23 23 23 23 23 23
26 26 25 25 25 24 24 23 23 23 23 24 24 24 25 25 26 27 28 28 28 28 27 26 26 25 25 25 25 26 26 27 27 27 27 26 25 25 24 24 23 22 20 17 15 14 14 14 15 15 15 16 16 17 17 17 17 18 18 19 20 21 22 23 24 24 24 23 23
25 25 25 24 25 24 24 24 23 23 23 24 24 24 25 26 27 27 28 28 27 27 26 25 24 24 24 25 26 27 27 27 27 27 26 25 24 24 23 23 23 22 20 17 15 13 13 13 14 15 15 16 17 18 18 19 19 20 20 21 21 22 22 23 23 24 24 24 24
25 24 24 24 24 25 25 25 25 24 24 24 25 25 25 27 28 28 28 27 26 25 24 23 22 23 24 26 27 27 27 27 26 25 24 23 23 23 23 23 23 21 19 16 14 13 12 12 13 15 16 17 18 18 19 20 20 21 22 22 23 23 23 23 23 24 24 24 24
24 24 24 24 24 25 26 27 27 26 25 26 26 26 26 26 26 27 27 25 24 23 22 21 21 23 25 26 27 27 27 26 26 24 23 22 22 22 23 24 22 19 16 14 13 12 12 12 14 15 17 18 18 19 19 20 21 22 23 23 23 23 23 23 23 23 24 24 24
23 22 23 24 25 26 28 29 29 29 28 28 28 27 26 25 25 25 25 23 22 21 20 20 22 24 25 26 26 26 26 26 25 24 23 23 23 24 24 23 20 17 14 13 12 12 12 13 14 16 17 18 19 19 20 21 22 23 23 24 24 23 23 22 23 23 23 24 25
22 22 24 26 28 29 31 32 33 32 31 30 29 27 24 23 22 22 22 21 21 20 20 22 24 24 25 25 26 26 26 25 25 25 26 26 26 26 24 21 17 14 12 12 12 12 13 14 15 17 18 19 20 21 21 22 23 23 23 24 23 23 22 22 22 22 23 24 24
25 27 29 31 32 34 35 35 35 34 33 32 30 27 24 20 18 18 18 18 19 20 21 23 24 25 25 26 26 26 25 25 26 28 29 30 29 26 22 18 14 12 12 12 12 13 15 16 17 18 20 21 22 22 22 23 23 23 23 23 23 23 22 22 22 22 23 23 24
30 32 33 35 35 36 36 36 36 35 34 33 32 29 24 20 17 15 15 17 19 22 24 25 26 26 26 27 26 26 26 26 28 30 31 30 28 24 19 15 13 12 12 13 14 15 16 17 18 19 20 21 22 23 23 23 22 22 22 22 23 23 23 23 23 23 23 24 24
33 33 34 35 35 35 35 35 34 34 33 32 31 28 23 17 14 14 15 18 21 24 26 27 27 27 28 28 27 26 26 27 29 30 30 28 24 20 15 13 13 13 14 14 15 15 16 16 17 18 19 21 22 22 23 22 22 21 21 22 22 23 24 24 25 25 25 25 25
31 31 32 33 34 34 34 34 33 33 32 32 29 25 20 16 16 17 18 21 23 26 27 28 28 29 29 28 27 27 27 28 29 29 28 25 20 16 13 13 14 15 15 15 15 14 14 15 15 16 17 19 20 21 22 22 22 22 23 23 23 24 24 25 26 26 27 27 26
29 29 31 32 32 32 32 32 32 32 32 32 30 26 21 18 19 20 21 23 25 26 28 29 29 29 29 28 27 27 28 28 28 26 24 20 16 13 13 14 15 15 15 14 14 13 13 13 14 15 16 17 19 20 21 22 23 23 24 24 25 25 25 25 25 26 26 26 26
29 30 30 30 31 31 31 30 30 31 31 31 30 27 24 21 21 23 25 26 27 28 29 30 30 29 28 28 28 28 28 27 26 23 20 16 13 13 14 15 15 15 15 14 13 13 13 13 14 15 16 17 19 20 21 22 23 23 24 24 24 24 24 24 24 24 25 25 26
29 29 29 29 29 29 29 29 29 29 30 30 29 28 26 26 25 26 26 27 28 29 29 30 30 29 28 28 28 28 27 26 23 20 17 14 13 14 15 15 15 15 14 13 13 13 13 14 15 16 17 18 19 20 21 22 22 23 23 24 24 23 23 22 22 23 24 25 25
26 27 26 26 26 26 27 27 28 28 29 29 29 29 28 27 25 24 25 26 27 27 28 28 29 28 27 26 25 25 25 23 21 18 16 14 15 16 16 16 15 14 13 13 13 14 14 15 16 16 17 18 19 20 21 21 22 22 23 23 23 23 23 22 22 23 24 24 25
22 23 23 23 23 24 24 25 26 27 28 28 27 26 24 21 20 21 22 23 24 25 26 26 26 25 23 22 22 22 22 21 19 17 16 16 16 17 17 16 15 14 13 13 14 15 16 16 17 17 18 18 19 20 20 21 22 22 23 23 24 24 24 24 24 24 25 25 26
18 19 19 19 20 20 21 22 22 22 22 21 20 18 16 15 16 17 19 21 22 23 24 24 23 21 20 20 20 21 21 20 19 18 18 18 18 18 17 16 15 14 14 14 15 16 17 17 18 18 18 19 19 20 21 22 23 24 24 25 25 26 26 26 26 26 26 26 26
16 16 16 16 16 17 17 17 17 16 15 14 13 12 12 14 15 17 19 21 22 22 22 21 20 19 19 20 21 21 21 21 21 20 20 20 19 19 17 16 15 15 15 15 16 17 18 18 19 19 19 19 20 21 22 23 24 25 26 27 27 28 28 28 28 27 27 27 27
16 15 15 15 15 15 15 14 14 13 12 11 11 12 13 15 16 18 20 21 22 22 21 20 19 19 19 20 21 22 23 23 23 22 21 21 20 19 18 17 16 15 15 16 17 18 19 19 19 19 19 20 21 22 23 24 25 27 27 28 29 29 29 29 29 29 28 28 28
16 15 15 15 15 15 14 14 13 13 12 12 13 14 15 16 17 19 20 22 22 22 22 21 20 20 21 21 22 23 24 24 24 23 21 20 19 19 18 17 17 16 16 17 18 19 19 19 19 19 19 20 22 23 24 25 26 27 28 29 30 30 31 30 30 30 29 29 28
16 15 16 16 15 15 14 15 15 14 14 14 15 16 17 18 19 20 21 22 22 22 22 22 21 21 22 23 23 24 25 25 23 22 20 19 19 19 18 18 17 17 18 18 19 20 19 19 19 19 19 21 22 23 24 25 27 28 29 30 30 31 31 31 30 30 29 29 29
15 15 15 15 15 15 16 17 17 16 16 15 16 16 17 18 19 20 21 21 21 21 22 21 22 22 23 24 25 25 25 24 22 20 19 18 18 18 18 18 18 18 19 20 20 20 19 19 19 19 20 21 22 23 25 26 27 28 29 30 30 30 30 30 30 30 29 29 29
15 15 15 15 16 17 18 18 18 17 16 15 15 16 17 17 18 19 19 20 20 20 21 21 21 22 23 24 24 24 23 22 20 19 18 17 17 17 17 18 18 19 20 21 21 20 19 19 19 19 20 21 22 23 24 26 27 28 28 29 29 30 30 29 29 29 30 30 30
15 15 16 16 17 18 19 19 19 17 15 14 14 15 16 16 17 17 18 18 19 19 20 20 20 21 22 22 22 21 20 19 18 17 17 16 16 17 17 18 19 21 21 21 20 19 19 18 19 19 20 21 22 23 24 25 26 27 28 29 29 29 30 29 29 29 30 30 30
16 17 17 18 18 19 19 18 17 16 14 13 13 14 15 15 16 16 17 17 18 18 17 17 18 18 19 19 19 18 17 16 16 16 16 16 16 16 17 18 20 21 21 20 19 18 18 18 19 19 20 21 22 23 24 26 26 27 28 29 29 29 29 30 30 29 29 30 30
Wind_Direction
195 193 192 193 195 196 195 194 193 194 196 196 194 194 197 200 203 206 210 214 216 216 216 217 218 218 219 220 220 218 216 215 216 219 223 226 227 225 224 225 227 228 227 227 230 233 235 234 229 223 221 225 228 231 236 242 251 263 271 266 241 229 230 237 240 238 232 228 230
196 195 194 195 197 198 197 195 194 195 198 200 198 197 198 202 204 208 212 216 218 218 218 218 219 219 219 220 220 219 216 215 216 219 222 224 225 224 223 224 227 228 228 229 231 234 234 231 223 216 215 219 221 225 234 244 254 265 269 262 242 233 233 235 238 236 232 229 229
196 195 195 197 199 200 199 197 196 197 199 202 201 200 200 204 207 210 215 219 221 220 219 219 220 220 220 221 220 218 216 215 217 219 221 223 222 222 222 223 225 227 228 230 233 235 234 228 219 213 214 219 222 228 237 249 258 265 267 258 242 234 233 234 235 234 231 229 230
197 195 196 199 202 203 202 200 199 200 201 203 201 200 201 204 208 212 217 221 222 221 219 219 219 220 221 221 220 218 216 215 217 219 221 221 220 220 220 222 224 226 229 231 234 235 232 223 215 214 217 223 226 232 240 252 261 267 267 259 245 236 233 234 234 233 231 230 229
198 197 198 202 205 207 206 204 203 203 204 205 202 199 200 204 208 212 216 220 222 222 221 220 219 219 220 220 219 217 215 215 217 219 220 220 219 218 219 221 223 226 229 232 234 234 229 221 216 217 222 229 232 233 239 250 260 266 267 259 242 232 230 232 233 232 231 230 230
199 199 201 205 208 209 208 206 206 206 207 206 202 199 200 203 208 212 216 220 222 223 222 220 218 218 218 220 219 217 215 215 217 218 219 218 217 216 217 219 222 225 229 232 233 232 227 221 219 223 228 233 232 228 229 239 250 257 259 254 245 235 230 230 232 232 233 233 235
199 199 202 206 210 210 209 208 208 209 210 209 205 201 201 204 209 213 217 221 222 221 219 217 216 216 218 219 218 217 215 215 216 217 217 216 215 215 216 218 221 224 227 231 232 230 226 222 223 227 232 234 230 222 219 226 237 245 250 252 249 242 235 234 235 235 235 236 238
200 200 202 206 210 211 210 210 210 211 211 211 208 204 203 206 210 214 217 219 219 218 216 216 215 217 219 220 218 216 215 214 214 215 215 215 214 214 216 218 220 223 226 230 232 230 227 224 226 230 234 235 231 223 220 223 235 243 248 248 247 244 241 240 241 242 241 241 243
201 199 201 206 210 211 211 212 213 214 214 214 211 207 205 207 211 214 215 215 216 217 216 215 216 218 220 220 218 216 213 212 212 213 213 213 213 214 216 218 220 222 226 230 232 231 227 225 226 230 233 235 235 234 232 230 236 243 246 247 245 243 243 244 246 247 247 248 249
200 198 199 203 208 211 212 213 214 216 218 217 214 209 206 208 212 214 214 215 216 216 215 215 216 217 219 219 217 214 212 211 211 212 213 213 213 215 216 219 220 222 225 229 231 230 228 226 226 229 232 237 243 245 244 240 237 239 243 246 247 246 245 246 249 251 252 253 255
199 196 196 200 206 211 213 213 214 216 218 218 214 209 207 209 212 214 215 215 214 214 215 216 217 218 218 217 215 213 211 211 212 213 213 213 214 216 218 219 221 221 223 226 227 228 227 227 229 232 238 246 248 248 246 242 239 239 242 246 249 250 249 249 249 251 253 254 257
198 195 195 198 204 209 212 212 213 214 216 215 211 207 206 209 212 213 214 213 213 215 216 218 218 218 218 216 214 212 211 212 213 215 215 215 215 216 217 219 220 220 221 222 224 225 227 230 235 242 249 254 256 253 246 240 237 238 241 244 248 251 252 251 249 249 249 251 254
196 194 193 196 202 207 210 211 211 211 211 210 205 204 205 208 211 212 212 212 214 216 217 217 218 219 218 215 214 212 211 212 214 215 216 216 215 216 216 218 218 217 217 219 221 223 227 233 242 250 257 260 261 254 244 237 235 235 237 240 243 247 251 252 251 249 248 249 250
194 193 193 196 200 203 206 207 206 207 207 205 201 201 204 207 209 210 211 213 215 216 216 216 217 218 217 217 214 213 212 212 213 214 214 214 214 214 214 215 214 213 213 216 220 224 229 238 247 257 263 264 259 250 242 237 236 236 236 238 240 245 249 251 252 251 249 247 248
193 193 194 197 199 201 203 204 203 203 203 202 198 200 203 205 207 208 209 212 215 217 216 216 215 215 215 216 215 213 213 212 212 212 211 210 211 212 212 212 212 212 213 216 220 226 234 244 252 260 265 263 254 245 240 239 238 239 239 239 241 245 249 251 253 253 251 250 250
193 194 195 197 199 200 201 201 200 200 200 199 196 198 200 201 203 206 208 211 214 216 216 216 215 213 212 212 213 212 211 210 209 209 208 208 209 210 210 211 212 213 215 217 222 230 239 249 258 263 263 259 249 241 238 239 240 242 243 243 245 247 249 251 253 253 254 253 254
194 194 196 197 199 201 201 199 198 198 197 196 194 196 197 198 201 205 209 213 215 216 216 215 214 212 210 209 208 208 207 207 207 207 207 207 208 209 209 211 213 215 216 219 226 236 245 254 261 263 262 257 248 241 238 238 239 242 244 246 248 250 251 253 254 254 255 256 256
194 195 196 197 199 200 200 199 197 196 194 192 191 193 195 197 201 206 211 215 217 215 213 213 213 212 208 205 203 203 204 205 206 206 207 207 208 209 210 211 213 215 219 225 235 246 253 257 259 260 258 255 250 245 241 239 238 239 242 245 249 251 253 254 255 255 255 256 256
194 195 196 197 199 201 200 197 195 194 193 190 190 190 193 198 203 207 211 214 215 214 212 211 211 209 205 201 200 201 203 205 206 206 206 207 209 209 209 210 212 216 224 235 245 254 256 255 253 253 252 251 249 247 245 243 242 242 244 248 250 252 253 254 255 256 256 257 256
196 197 197 197 198 200 200 196 194 193 191 189 189 190 193 199 204 208 209 210 211 212 210 209 206 203 201 200 199 200 203 205 206 206 206 208 209 209 208 210 213 221 231 242 251 256 256 252 247 245 245 245 245 246 246 246 247 249 252 255 256 256 255 255 256 256 256 256 256
197 198 198 196 196 196 195 194 192 190 188 187 188 191 194 197 202 206 208 208 208 206 204 201 199 199 199 200 200 201 203 206 207 207 206 207 207 207 209 212 219 227 237 247 252 255 253 248 242 240 240 241 242 243 244 246 249 252 256 260 262 262 260 259 257 257 257 256 256
197 198 196 192 190 190 191 191 190 188 185 186 188 192 195 198 202 205 206 206 205 202 198 195 196 198 200 202 203 204 205 208 210 209 208 207 207 209 212 218 225 234 242 247 251 251 249 245 240 238 238 238 240 241 243 246 250 254 258 262 264 264 264 262 260 259 258 257 257
195 193 191 188 187 188 189 190 189 187 185 186 188 191 194 198 202 205 205 204 204 199 195 195 198 200 202 204 206 208 212 217 218 216 214 213 212 214 219 225 233 240 245 247 246 245 243 241 240 238 238 238 239 241 244 247 252 256 260 262 263 263 263 263 261 260 259 259 258
192 190 188 188 188 190 191 191 190 189 189 189 189 189 189 191 197 202 204 203 199 195 193 196 199 202 205 209 213 219 226 231 229 225 221 219 218 220 225 233 238 243 245 245 244 241 240 240 240 240 240 240 241 244 247 251 256 259 261 261 261 262 261 261 260 259 259 259 260
192 191 190 189 190 192 194 194 194 194 194 195 194 191 187 188 193 199 200 199 196 195 196 199 203 207 212 218 225 234 242 243 237 230 225 222 221 224 230 235 239 242 244 244 244 244 244 246 246 246 247 247 248 250 254 257 260 260 259 259 259 260 261 260 260 258 258 258 259
192 191 191 191 192 194 196 197 198 198 199 199 196 194 195 203 216 218 211 204 203 203 204 208 211 216 222 228 236 244 248 246 240 233 226 222 223 226 229 231 234 239 244 246 248 250 252 254 255 255 255 255 256 258 260 262 261 259 257 257 258 259 261 262 261 261 260 259 259
187 189 192 194 196 198 200 201 202 202 202 201 198 198 207 231 251 249 233 220 215 214 215 217 221 226 230 234 239 244 245 243 237 230 225 223 225 226 226 227 233 239 245 250 254 257 260 261 262 263 263 263 263 264 265 264 262 259 257 257 258 259 261 263 264 264 264 264 263
185 190 196 199 201 203 205 207 207 208 208 206 205 208 218 238 255 255 245 235 229 225 224 225 228 231 232 233 236 238 238 235 230 225 223 224 225 224 225 229 235 241 248 254 259 264 267 269 270 270 270 269 268 267 266 266 264 263 262 262 262 263 264 264 265 266 266 266 266
193 196 199 202 204 207 210 212 213 214 214 214 214 218 226 238 250 253 248 242 238 234 231 230 231 231 230 230 232 232 230 227 224 222 222 223 223 223 227 232 238 245 252 259 265 271 275 277 278 278 276 274 271 269 268 267 266 267 267 268 268 268 267 266 266 266 266 267 267
199 200 202 204 207 211 214 216 218 219 220 221 223 229 237 247 253 252 245 241 239 237 234 232 231 230 231 232 232 230 226 223 221 222 223 223 222 224 229 235 241 248 256 265 272 278 283 285 285 283 280 276 273 271 269 269 269 270 271 272 273 273 271 268 265 265 266 267 268
206 206 207 209 212 215 218 221 223 225 227 230 234 240 247 252 251 245 238 236 236 235 233 231 231 232 235 237 235 230 225 222 222 224 224 223 223 225 230 235 242 251 261 271 280 286 289 290 289 286 283 279 276 273 273 272 272 272 274 275 276 277 276 272 267 264 263 265 267
212 213 214 216 218 222 225 228 231 233 236 239 243 246 248 247 241 235 231 230 230 229 229 230 232 234 236 236 233 228 224 223 224 226 226 224 224 226 230 236 243 254 266 277 285 291 293 293 292 288 284 280 278 276 275 275 275 276 276 277 279 280 280 278 274 269 265 264 264
210 213 215 217 220 223 227 231 234 237 239 241 242 241 237 232 227 223 221 222 224 225 227 230 231 232 231 228 224 222 221 222 224 226 225 224 225 227 231 237 247 258 271 281 289 294 296 295 293 289 285 281 279 278 277 277 277 278 279 280 281 282 283 283 281 278 273 268 265
199 202 205 206 211 216 221 226 230 232 232 231 228 224 219 216 215 212 212 214 219 223 227 230 231 230 227 224 220 218 218 219 221 223 224 224 226 229 234 241 251 263 275 286 292 296 297 295 292 288 284 281 279 277 277 277 277 278 279 280 282 284 285 286 285 283 280 275 270
189 190 191 193 198 203 209 213 217 219 218 214 210 208 207 208 209 208 208 211 215 219 223 226 227 226 223 219 217 215 215 216 218 221 223 226 229 233 238 245 254 266 278 287 294 296 296 293 289 285 281 278 276 275 274 275 276 277 279 280 282 284 285 286 286 285 283 279 274
185 185 185 186 190 194 197 199 202 206 207 204 201 200 201 204 206 208 209 211 213 215 217 219 220 218 215 212 211 212 213 215 218 222 226 230 234 237 241 247 256 268 279 288 293 295 293 290 285 281 277 274 273 273 273 274 275 276 278 279 280 282 284 285 285 285 283 280 276
182 183 184 184 187 188 188 190 195 199 201 200 200 199 200 201 203 207 210 211 211 212 213 215 215 213 210 208 209 211 214 217 220 225 231 236 238 240 244 249 258 270 281 289 293 294 292 288 283 279 275 273 272 272 273 274 275 277 278 279 280 282 284 284 285 284 283 281 279
178 181 183 184 183 183 185 189 194 198 201 201 201 201 201 201 202 205 209 211 210 210 210 212 211 210 209 209 210 212 216 220 225 231 237 240 241 242 245 252 262 274 285 291 294 293 290 287 283 279 276 273 273 273 274 275 277 279 280 281 282 283 284 285 285 284 283 282 280
175 179 181 181 181 183 187 192 197 201 204 203 203 202 201 200 200 204 208 210 209 208 208 208 209 209 209 210 212 215 219 225 231 237 240 241 242 245 250 259 270 281 289 293 294 293 290 287 284 281 279 277 277 277 278 279 281 282 283 284 285 285 285 285 284 284 283 282 281
173 176 179 180 183 186 190 195 199 204 207 206 203 200 197 196 196 200 204 206 205 205 205 206 207 208 210 212 215 218 224 231 236 240 242 242 246 251 260 270 280 288 293 295 295 293 292 290 288 286 285 284 284 284 284 285 285 285 286 286 286 286 286 286 285 284 284 283 282
172 175 178 181 185 189 192 195 199 204 208 207 201 194 190 188 189 193 196 198 198 199 201 204 205 207 210 213 217 221 226 231 236 240 243 246 253 262 273 282 289 293 295 295 294 293 291 290 289 288 288 287 287 288 288 288 287 287 287 288 288 288 288 287 287 285 284 283 282
Height
1518 1519 1520 1521 1521 1521 1521 1522 1523 1524 1525 1525 1526 1527 1527 1527 1528 1528 1528 1528 1528 1529 1530 1531 1532 1533 1534 1534 1535 1536 1537 1538 1539 1539 1539 1540 1541 1542 1542 1542 1543 1543 1544 1544 1545 1545 1545 1545 1545 1546 1546 1546 1546 1546 1547 1547 1547 1548 1548 1548 1548 1548 1549 1548 1548 1548 1549 1549 1549
1517 1517 1518 1519 1519 1519 1520 1521 1522 1522 1523 1523 1524 1525 1526 1526 1526 1526 1526 1526 1527 1528 1529 1530 1531 1531 1532 1533 1534 1535 1536 1537 1537 1537 1538 1539 1540 1541 1541 1541 1541 1542 1543 1543 1544 1544 1544 1544 1544 1544 1545 1545 1545 1546 1546 1546 1546 1547 1547 1547 1547 1547 1548 1548 1548 1548 1548 1548 1548
1515 1516 1516 1517 1517 1518 1518 1519 1520 1521 1521 1522 1523 1523 1524 1524 1525 1525 1525 1525 1526 1526 1527 1528 1529 1530 1531 1531 1533 1534 1535 1535 1536 1536 1537 1537 1538 1539 1540 1540 1540 1541 1541 1542 1542 1543 1543 1543 1543 1543 1544 1544 1544 1544 1544 1545 1545 1546 1546 1546 1546 1546 1546 1546 1547 1547 1547 1547 1547
1514 1515 1515 1515 1515 1516 1516 1517 1518 1519 1520 1520 1521 1522 1522 1523 1523 1523 1524 1524 1525 1525 1526 1527 1527 1528 1529 1530 1531 1532 1533 1534 1535 1535 1536 1536 1537 1538 1538 1539 1539 1540 1540 1541 1541 1541 1542 1542 1542 1543 1543 1543 1543 1543 1543 1543 1544 1544 1545 1545 1545 1546 1546 1546 1546 1546 1546 1546 1546
1513 1513 1513 1513 1513 1514 1515 1516 1517 1517 1518 1519 1520 1521 1521 1521 1522 1522 1522 1523 1523 1524 1524 1525 1526 1527 1527 1528 1530 1531 1532 1533 1533 1534 1535 1535 1536 1536 1537 1537 1538 1538 1539 1539 1540 1540 1541 1541 1541 1541 1542 1542 1543 1543 1542 1542 1542 1543 1543 1544 1544 1545 1545 1545 1545 1545 1545 1545 1544
1511 1512 1511 1511 1512 1513 1514 1515 1515 1516 1516 1517 1518 1519 1520 1520 1520 1520 1521 1521 1521 1522 1523 1524 1525 1526 1526 1527 1528 1529 1531 1531 1532 1532 1533 1534 1535 1535 1536 1536 1536 1537 1537 1538 1538 1539 1539 1539 1540 1541 1541 1541 1542 1542 1542 1542 1542 1542 1542 1543 1543 1544 1544 1544 1544 1544 1544 1543 1543
1509 1510 1510 1510 1511 1511 1512 1513 1514 1514 1515 1516 1517 1518 1519 1519 1519 1519 1519 1519 1520 1521 1521 1522 1523 1524 1525 1526 1527 1528 1529 1530 1530 1531 1532 1532 1533 1534 1534 1535 1535 1536 1536 1536 1537 1537 1538 1538 1539 1539 1540 1540 1541 1541 1541 1542 1541 1541 1541 1542 1542 1543 1543 1543 1543 1543 1543 1542 1542
1508 1508 1508 1508 1509 1510 1511 1511 1512 1513 1513 1514 1515 1516 1517 1517 1517 1518 1518 1518 1519 1519 1520 1521 1521 1522 1523 1524 1525 1526 1527 1528 1529 1530 1531 1531 1532 1532 1533 1534 1534 1535 1535 1535 1536 1536 1536 1537 1537 1538 1538 1539 1540 1540 1541 1541 1541 1541 1541 1541 1541 1541 1542 1542 1541 1541 1541 1541 1541
1506 1507 1507 1507 1507 1508 1509 1510 1511 1511 1512 1513 1514 1515 1516 1516 1516 1516 1517 1517 1517 1518 1519 1519 1520 1521 1522 1523 1524 1525 1526 1526 1527 1528 1529 1530 1531 1531 1532 1532 1533 1533 1533 1533 1534 1535 1535 1536 1536 1536 1537 1538 1538 1539 1540 1540 1540 1540 1540 1540 1540 1540 1541 1541 1540 1540 1540 1539 1539
1505 1505 1505 1505 1506 1507 1508 1509 1509 1510 1511 1511 1512 1513 1514 1514 1515 1515 1516 1516 1516 1517 1517 1518 1519 1520 1520 1521 1522 1523 1524 1525 1526 1527 1528 1529 1529 1530 1530 1531 1531 1531 1531 1532 1532 1533 1534 1534 1535 1536 1536 1537 1537 1538 1538 1538 1538 1538 1538 1539 1539 1539 1539 1539 1539 1539 1538 1538 1537
1503 1503 1503 1503 1504 1505 1506 1507 1508 1509 1510 1511 1511 1512 1512 1512 1513 1514 1514 1515 1515 1516 1516 1517 1517 1518 1519 1520 1521 1521 1522 1524 1525 1526 1526 1527 1528 1528 1529 1529 1530 1530 1530 1530 1531 1531 1532 1533 1534 1535 1535 1536 1536 1536 1536 1536 1537 1537 1537 1537 1537 1538 1538 1538 1538 1537 1537 1536 1536
1501 1501 1502 1502 1502 1504 1505 1506 1507 1508 1508 1509 1510 1511 1511 1511 1511 1512 1513 1514 1514 1514 1515 1516 1516 1516 1517 1518 1519 1520 1521 1522 1523 1524 1525 1526 1526 1527 1527 1528 1528 1528 1529 1529 1529 1530 1531 1532 1533 1533 1534 1534 1534 1534 1535 1535 1536 1536 1536 1536 1536 1536 1536 1536 1537 1536 1536 1536 1535
1500 1500 1501 1501 1501 1502 1504 1505 1506 1506 1507 1508 1509 1509 1509 1509 1510 1511 1511 1512 1512 1513 1514 1514 1515 1515 1516 1516 1517 1518 1519 1520 1521 1521 1523 1524 1525 1525 1526 1526 1527 1527 1527 1527 1528 1529 1530 1531 1531 1532 1532 1533 1533 1533 1533 1534 1534 1534 1534 1534 1534 1534 1535 1535 1535 1535 1535 1535 1534
1498 1499 1499 1500 1500 1501 1502 1504 1505 1505 1506 1507 1508 1508 1508 1508 1509 1509 1510 1511 1511 1512 1512 1513 1513 1514 1515 1515 1516 1517 1517 1518 1518 1519 1521 1522 1523 1523 1524 1525 1526 1526 1526 1526 1527 1528 1529 1529 1530 1531 1531 1531 1531 1532 1532 1533 1533 1533 1533 1533 1533 1533 1533 1533 1534 1534 1534 1533 1533
1496 1497 1498 1499 1499 1500 1501 1502 1503 1504 1505 1506 1507 1507 1506 1507 1507 1508 1509 1509 1510 1511 1511 1511 1512 1513 1514 1514 1515 1516 1516 1517 1517 1518 1519 1520 1521 1522 1523 1523 1524 1525 1525 1526 1526 1527 1527 1528 1529 1529 1530 1530 1530 1531 1531 1531 1531 1532 1532 1532 1532 1532 1532 1532 1532 1532 1532 1532 1531
1495 1496 1497 1498 1498 1499 1500 1501 1502 1503 1504 1505 1505 1506 1505 1506 1506 1507 1507 1508 1509 1510 1510 1511 1511 1512 1513 1514 1515 1515 1516 1516 1517 1517 1518 1519 1520 1521 1521 1522 1523 1524 1524 1525 1525 1526 1526 1526 1527 1527 1528 1529 1529 1530 1530 1530 1530 1531 1531 1531 1531 1531 1531 1531 1531 1530 1530 1530 1530
1493 1494 1496 1496 1497 1498 1499 1500 1501 1502 1503 1503 1504 1504 1504 1504 1505 1506 1506 1507 1508 1508 1509 1510 1511 1511 1512 1513 1514 1515 1515 1516 1516 1517 1518 1518 1519 1520 1520 1521 1522 1523 1524 1524 1525 1525 1525 1525 1526 1526 1527 1527 1528 1528 1528 1529 1529 1529 1529 1529 1529 1529 1529 1529 1529 1528 1528 1528 1527
1491 1493 1494 1495 1496 1497 1498 1499 1500 1501 1501 1502 1503 1503 1503 1503 1503 1504 1505 1506 1506 1507 1508 1509 1510 1510 1511 1512 1513 1514 1514 1515 1515 1516 1517 1517 1518 1519 1519 1520 1521 1522 1523 1523 1523 1524 1524 1524 1524 1525 1525 1526 1526 1526 1527 1527 1527 1527 1528 1528 1528 1528 1527 1527 1527 1526 1526 1526 1526
1490 1491 1493 1494 1495 1496 1496 1497 1498 1499 1499 1501 1501 1502 1502 1502 1502 1503 1504 1505 1506 1506 1508 1509 1510 1510 1511 1511 1512 1512 1513 1514 1515 1515 1516 1517 1517 1518 1518 1519 1520 1521 1521 1522 1522 1522 1523 1523 1523 1523 1524 1524 1524 1525 1525 1525 1525 1526 1526 1526 1526 1526 1526 1525 1525 1525 1524 1524 1524
1489 1490 1491 1492 1493 1494 1495 1496 1496 1497 1498 1499 1500 1500 1501 1501 1501 1502 1503 1504 1505 1506 1507 1508 1509 1510 1510 1511 1511 1511 1512 1513 1514 1515 1516 1517 1517 1516 1517 1517 1518 1519 1520 1521 1521 1521 1521 1521 1522 1522 1522 1523 1523 1523 1523 1523 1523 1524 1524 1524 1524 1524 1524 1524 1523 1523 1523 1522 1522
1487 1489 1490 1491 1492 1493 1493 1494 1494 1495 1496 1497 1497 1498 1499 1500 1500 1501 1502 1503 1504 1505 1506 1507 1508 1509 1509 1510 1510 1511 1512 1513 1514 1515 1516 1516 1516 1516 1515 1515 1516 1517 1518 1519 1519 1520 1520 1520 1521 1521 1521 1521 1521 1521 1521 1521 1521 1521 1522 1522 1522 1522 1521 1521 1521 1521 1521 1521 1520
1486 1488 1489 1490 1491 1491 1491 1491 1491 1492 1493 1494 1495 1496 1497 1498 1500 1501 1502 1503 1503 1504 1505 1506 1506 1506 1508 1509 1510 1510 1511 1511 1512 1513 1514 1515 1515 1514 1513 1513 1514 1515 1516 1517 1518 1518 1519 1519 1520 1520 1520 1520 1520 1520 1520 1520 1520 1520 1520 1520 1520 1520 1520 1520 1520 1519 1519 1519 1518
1486 1487 1487 1487 1487 1487 1487 1488 1489 1490 1491 1492 1494 1495 1496 1498 1499 1500 1501 1502 1502 1503 1504 1504 1504 1505 1506 1507 1508 1508 1509 1509 1509 1510 1511 1512 1512 1511 1512 1513 1514 1514 1515 1516 1516 1517 1517 1518 1518 1518 1518 1519 1519 1519 1519 1518 1518 1518 1518 1518 1518 1518 1518 1518 1518 1517 1517 1517 1516
1483 1483 1483 1483 1483 1483 1484 1485 1486 1487 1489 1491 1492 1494 1495 1497 1498 1499 1500 1501 1501 1502 1502 1502 1503 1503 1504 1505 1506 1506 1506 1506 1507 1507 1507 1508 1509 1510 1511 1512 1512 1513 1514 1515 1516 1516 1516 1516 1517 1517 1517 1517 1517 1517 1517 1517 1517 1517 1516 1516 1516 1516 1516 1516 1516 1516 1516 1515 1515
1478 1479 1479 1479 1480 1481 1482 1483 1485 1486 1488 1489 1491 1492 1494 1495 1497 1498 1499 1500 1500 1501 1501 1501 1501 1502 1502 1502 1502 1503 1503 1504 1504 1505 1505 1506 1507 1509 1510 1511 1511 1512 1513 1514 1514 1515 1515 1515 1515 1515 1515 1515 1515 1515 1515 1515 1515 1515 1515 1515 1514 1514 1514 1514 1514 1513 1513 1513 1513
1476 1476 1477 1478 1479 1480 1481 1483 1485 1486 1488 1489 1490 1491 1493 1494 1496 1497 1498 1498 1499 1499 1499 1500 1500 1500 1500 1500 1501 1501 1501 1502 1502 1502 1503 1505 1506 1508 1509 1510 1510 1511 1511 1512 1513 1513 1514 1514 1514 1514 1514 1514 1514 1514 1514 1513 1513 1513 1513 1513 1512 1512 1512 1511 1511 1511 1511 1511 1511
1475 1476 1477 1478 1479 1480 1481 1483 1484 1486 1487 1488 1490 1491 1492 1493 1494 1495 1496 1496 1497 1497 1498 1498 1498 1498 1498 1498 1499 1499 1499 1500 1500 1501 1502 1504 1506 1507 1508 1508 1509 1510 1510 1511 1511 1512 1512 1512 1513 1513 1513 1512 1512 1512 1512 1511 1511 1511 1511 1511 1511 1510 1510 1509 1509 1509 1508 1508 1508
1475 1477 1478 1478 1479 1480 1481 1482 1483 1485 1486 1487 1488 1489 1491 1492 1493 1494 1494 1494 1495 1495 1496 1496 1496 1496 1497 1497 1497 1497 1497 1498 1499 1500 1502 1504 1505 1506 1506 1507 1508 1508 1509 1510 1510 1511 1511 1511 1511 1511 1511 1511 1511 1511 1510 1510 1510 1509 1509 1509 1508 1508 1508 1507 1507 1507 1506 1506 1506
1475 1476 1477 1478 1479 1480 1481 1482 1483 1484 1485 1486 1487 1488 1489 1490 1491 1492 1492 1492 1492 1493 1493 1494 1494 1494 1495 1495 1496 1496 1496 1497 1499 1500 1502 1503 1504 1505 1505 1506 1507 1507 1508 1508 1509 1509 1509 1510 1510 1510 1509 1509 1509 1509 1508 1508 1507 1507 1507 1506 1506 1506 1506 1506 1505 1505 1505 1504 1504
1475 1476 1477 1478 1479 1480 1481 1482 1483 1484 1484 1485 1486 1486 1487 1488 1489 1490 1490 1489 1490 1490 1491 1491 1491 1492 1492 1493 1494 1495 1496 1497 1499 1500 1501 1502 1503 1503 1504 1505 1506 1506 1506 1507 1507 1507 1508 1508 1508 1508 1508 1507 1507 1507 1506 1506 1506 1505 1505 1505 1504 1504 1504 1504 1503 1503 1503 1503 1502
1475 1476 1477 1478 1479 1480 1481 1481 1482 1483 1484 1484 1485 1485 1486 1486 1487 1487 1487 1487 1488 1488 1489 1489 1490 1490 1491 1492 1493 1494 1496 1497 1498 1499 1500 1501 1501 1502 1503 1504 1504 1505 1505 1505 1506 1506 1506 1506 1506 1506 1506 1506 1505 1505 1504 1504 1504 1503 1503 1502 1502 1502 1502 1501 1501 1501 1501 1501 1501
1474 1476 1477 1478 1479 1480 1480 1481 1481 1482 1482 1483 1483 1484 1484 1484 1485 1485 1486 1486 1486 1487 1487 1488 1488 1489 1491 1492 1493 1494 1496 1497 1497 1498 1499 1500 1500 1501 1502 1503 1503 1503 1503 1504 1504 1504 1504 1504 1504 1504 1504 1504 1503 1503 1502 1502 1502 1501 1501 1501 1500 1500 1500 1499 1499 1499 1499 1499 1499
1473 1475 1476 1477 1478 1478 1479 1479 1480 1480 1481 1481 1481 1482 1482 1482 1483 1484 1484 1485 1485 1485 1486 1486 1488 1489 1490 1491 1492 1494 1495 1496 1496 1497 1498 1499 1499 1500 1501 1501 1502 1502 1502 1502 1503 1503 1503 1503 1502 1502 1502 1502 1501 1501 1501 1500 1500 1499 1499 1498 1498 1498 1497 1497 1497 1496 1496 1496 1496
1472 1474 1475 1476 1476 1476 1477 1477 1478 1478 1479 1479 1480 1480 1481 1481 1482 1482 1483 1484 1484 1484 1485 1486 1487 1488 1490 1491 1492 1493 1494 1495 1496 1496 1497 1498 1499 1499 1500 1500 1501 1501 1501 1501 1501 1501 1501 1501 1501 1500 1500 1500 1500 1499 1499 1498 1498 1497 1497 1496 1496 1496 1495 1495 1495 1494 1494 1494 1493
1472 1473 1474 1474 1475 1475 1476 1476 1476 1477 1477 1478 1479 1479 1480 1481 1481 1482 1482 1483 1483 1484 1485 1486 1487 1488 1490 1491 1492 1493 1493 1494 1495 1495 1496 1497 1498 1498 1499 1499 1499 1500 1500 1500 1500 1500 1500 1499 1499 1499 1498 1498 1498 1497 1497 1496 1496 1495 1495 1494 1494 1493 1493 1492 1492 1492 1491 1491 1491
1471 1472 1473 1473 1474 1474 1475 1475 1476 1476 1476 1477 1478 1479 1479 1480 1481 1481 1482 1482 1483 1484 1485 1486 1487 1488 1489 1491 1491 1492 1492 1493 1494 1495 1495 1496 1497 1497 1497 1498 1498 1498 1499 1499 1499 1498 1498 1498 1497 1497 1497 1496 1496 1496 1495 1495 1494 1493 1493 1492 1492 1491 1491 1490 1490 1489 1489 1489 1488
1471 1471 1472 1472 1473 1474 1474 1475 1475 1475 1476 1477 1477 1478 1479 1480 1480 1481 1481 1482 1483 1484 1485 1486 1486 1488 1489 1490 1491 1491 1491 1492 1493 1494 1495 1495 1496 1496 1496 1496 1497 1497 1497 1497 1497 1497 1496 1496 1496 1496 1496 1495 1494 1494 1493 1493 1492 1492 1491 1491 1490 1489 1489 1488 1488 1487 1487 1486 1486
1470 1471 1471 1472 1472 1473 1474 1474 1474 1475 1475 1476 1477 1478 1478 1479 1480 1480 1481 1481 1482 1483 1484 1485 1486 1487 1488 1489 1490 1490 1491 1491 1492 1493 1494 1494 1494 1495 1495 1495 1496 1496 1496 1496 1496 1495 1495 1495 1494 1494 1494 1493 1493 1492 1492 1491 1491 1490 1489 1488 1488 1487 1486 1486 1486 1485 1484 1484 1483
1470 1470 1471 1471 1472 1472 1473 1473 1473 1474 1475 1476 1476 1477 1478 1479 1479 1480 1480 1481 1482 1483 1484 1485 1486 1487 1487 1488 1489 1490 1491 1491 1492 1492 1493 1493 1493 1494 1494 1494 1494 1495 1495 1495 1494 1494 1493 1493 1493 1493 1492 1492 1491 1491 1490 1490 1489 1488 1487 1486 1486 1485 1484 1484 1483 1482 1482 1481 1481
1469 1469 1470 1471 1471 1471 1471 1472 1473 1473 1474 1475 1476 1477 1478 1478 1479 1479 1480 1481 1482 1483 1484 1485 1486 1486 1487 1488 1489 1489 1490 1491 1491 1491 1491 1492 1492 1493 1493 1493 1493 1493 1493 1493 1492 1492 1491 1491 1491 1491 1491 1490 1490 1489 1489 1488 1487 1486 1486 1485 1484 1483 1482 1481 1481 1481 1480 1479 1478
1468 1468 1469 1469 1470 1470 1471 1471 1472 1473 1474 1475 1476 1476 1477 1478 1479 1479 1480 1481 1482 1483 1484 1485 1486 1486 1487 1487 1488 1489 1489 1490 1490 1490 1491 1491 1491 1491 1492 1491 1491 1491 1491 1491 1491 1490 1490 1490 1490 1489 1489 1489 1488 1487 1487 1486 1486 1485 1484 1483 1482 1481 1481 1480 1479 1478 1478 1477 1476